Weather History for KBMT - October, 2012

Change the Weather History Date:

Saturday, October 27, 2012

  Actual Average (KBPT) Record (KBPT)
Temperature  
Mean Temperature 52 °F 68 °F  
Max Temperature 62 °F 78 °F 92 °F (1927)
Min Temperature 42 °F 57 °F 35 °F (1957)
Degree Days  
Heating Degree Days 13 2  
Month to date heating degree days 22  
Since 1 July heating degree days 23  
Cooling Degree Days 0 5  
Month to date cooling degree days 189  
Year to date cooling degree days 2775  
Growing Degree Days 2 (Base 50)    
Moisture  
Dew Point 40 °F    
Average Humidity 64    
Maximum Humidity 93    
Minimum Humidity 37    
Precipitation  
Precipitation 0.00 in 0.17 in 2.28 in (1970)
Month to date precipitation 4.92  
Year to date precipitation 50.12  
Snow  
Snow 0.00 in 0.00 in 0.00 in ()
Month to date snowfall 0.0  
Since 1 July snowfall 0.0  
Since 1 September snowfall 0.0  
Snow Depth -    
Sea Level Pressure  
Sea Level Pressure 30.14 in    
Wind  
Wind Speed 12 mph (North)    
Max Wind Speed 20 mph    
Max Gust Speed 28 mph    
Visibility 10 miles    
Events      
T = Trace of Precipitation, MM = Missing Value Source: NWS Daily Summary

Daily Weather History Graph

Daily Weather History Graph

Search for Another Location

Airport or City:

Trip Planner

Search our weather history database for the weather conditions in past years. The results will help you decide how hot, cold, wet, or windy it might be!

Date:

Astronomy

Oct. 27, 2012 Rise Set
Actual Time 7:27 AM CDT 6:33 PM CDT
Civil Twilight 7:02 AM CDT 6:57 PM CDT
Nautical Twilight 6:34 AM CDT 7:26 PM CDT
Astronomical Twilight 6:06 AM CDT 7:54 PM CDT
Moon 5:15 PM CDT (10/27) 5:29 AM CDT (10/27)
Length of Visible Light 11h 55m
Length of Day
11h 06m
Waxing Gibbous, 96% of the Moon is Illuminated
Oct 27
Waxing Gibbous
Oct 29
Full
Nov 6
Last Quarter
Nov 13
New
Nov 20
First Quarter

Hourly Weather History & Observations

Time (CDT) Temp. Windchill Dew Point Humidity Pressure Visibility Wind Dir Wind Speed Gust Speed Precip Events Conditions
12:15 AM 51.8 °F - 44.6 °F 76% 30.16 in 10.0 mi North 15.0 mph 25.3 mph N/A   Overcast
12:35 AM 51.8 °F - 44.6 °F 76% 30.16 in 10.0 mi North 15.0 mph 21.9 mph N/A   Overcast
12:55 AM 51.8 °F - 44.6 °F 76% 30.15 in 10.0 mi North 13.8 mph 20.7 mph N/A   Overcast
1:15 AM 51.8 °F - 44.6 °F 76% 30.16 in 10.0 mi North 13.8 mph 19.6 mph N/A   Overcast
1:35 AM 51.8 °F - 44.6 °F 76% 30.15 in 10.0 mi North 12.7 mph 21.9 mph N/A   Overcast
1:55 AM 51.8 °F - 44.6 °F 76% 30.15 in 10.0 mi North 11.5 mph - N/A   Overcast
2:15 AM 51.8 °F - 44.6 °F 76% 30.15 in 10.0 mi North 13.8 mph 18.4 mph N/A   Overcast
2:55 AM 51.8 °F - 44.6 °F 76% 30.14 in 10.0 mi North 9.2 mph - N/A   Overcast
3:15 AM 51.8 °F - 44.6 °F 76% 30.14 in 10.0 mi North 9.2 mph - N/A   Overcast
3:35 AM 51.8 °F - 42.8 °F 71% 30.13 in 10.0 mi North 10.4 mph - N/A   Overcast
3:55 AM 50.0 °F - 42.8 °F 76% 30.13 in 10.0 mi North 9.2 mph - N/A   Scattered Clouds
4:15 AM 50.0 °F - 42.8 °F 76% 30.13 in 10.0 mi North 10.4 mph - N/A   Clear
4:35 AM 50.0 °F - 42.8 °F 76% 30.13 in 10.0 mi North 12.7 mph - N/A   Scattered Clouds
4:55 AM 50.0 °F - 42.8 °F 76% 30.13 in 10.0 mi North 11.5 mph - N/A   Mostly Cloudy
5:15 AM 50.0 °F - 42.8 °F 76% 30.13 in 10.0 mi North 9.2 mph - N/A   Scattered Clouds
5:35 AM 50.0 °F - 44.6 °F 82% 30.13 in 10.0 mi North 6.9 mph - N/A   Clear
5:55 AM 50.0 °F - 44.6 °F 82% 30.14 in 10.0 mi North 6.9 mph - N/A   Mostly Cloudy
6:15 AM 50.0 °F - 44.6 °F 82% 30.15 in 10.0 mi North 10.4 mph 16.1 mph N/A   Overcast
6:55 AM 46.4 °F 42.4 °F 44.6 °F 93% 30.16 in 10.0 mi NNW 8.1 mph - N/A   Clear
7:15 AM 46.4 °F 42.9 °F 44.6 °F 93% 30.16 in 10.0 mi NNW 6.9 mph - N/A   Clear
7:35 AM 46.4 °F 42.9 °F 44.6 °F 93% 30.17 in 10.0 mi NNW 6.9 mph - N/A   Clear
7:55 AM 46.4 °F 42.4 °F 44.6 °F 93% 30.18 in 10.0 mi NNW 8.1 mph - N/A   Mostly Cloudy
8:15 AM 48.2 °F - 44.6 °F 87% 30.18 in 10.0 mi North 9.2 mph - N/A   Overcast
8:35 AM 48.2 °F - 44.6 °F 87% 30.19 in 10.0 mi NNW 11.5 mph - N/A   Mostly Cloudy
8:55 AM 50.0 °F - 44.6 °F 82% 30.20 in 10.0 mi NNW 11.5 mph - N/A   Scattered Clouds
9:15 AM 50.0 °F - 42.8 °F 76% 30.20 in 10.0 mi North 16.1 mph 20.7 mph N/A   Clear
9:35 AM 51.8 °F - 41.0 °F 67% 30.20 in 10.0 mi North 11.5 mph 19.6 mph N/A   Clear
10:35 AM 55.4 °F - 37.4 °F 51% 30.19 in 10.0 mi North 17.3 mph 23.0 mph N/A   Clear
10:55 AM 55.4 °F - 37.4 °F 51% 30.20 in 10.0 mi North 17.3 mph 24.2 mph N/A   Clear
11:15 AM 57.2 °F - 37.4 °F 48% 30.20 in 10.0 mi North 16.1 mph 23.0 mph N/A   Clear
11:35 AM 59.0 °F - 37.4 °F 45% 30.19 in 10.0 mi North 12.7 mph 27.6 mph N/A   Clear
11:55 AM 59.0 °F - 37.4 °F 45% 30.18 in 10.0 mi North 17.3 mph 24.2 mph N/A   Clear
12:15 PM 60.8 °F - 37.4 °F 42% 30.18 in 10.0 mi North 16.1 mph 24.2 mph N/A   Clear
12:35 PM 60.8 °F - 37.4 °F 42% 30.16 in 10.0 mi NNW 16.1 mph 23.0 mph N/A   Clear
12:55 PM 60.8 °F - 37.4 °F 42% 30.15 in 10.0 mi North 15.0 mph - N/A   Clear
1:15 PM 62.6 °F - 37.4 °F 39% 30.14 in 10.0 mi North 16.1 mph 23.0 mph N/A   Clear
1:35 PM 62.6 °F - 37.4 °F 39% 30.12 in 10.0 mi North 19.6 mph 23.0 mph N/A   Clear
1:55 PM 62.6 °F - 37.4 °F 39% 30.10 in 10.0 mi North 17.3 mph 24.2 mph N/A   Clear
2:15 PM 62.6 °F - 37.4 °F 39% 30.10 in 10.0 mi North 15.0 mph 23.0 mph N/A   Clear
2:35 PM 62.6 °F - 37.4 °F 39% 30.09 in 10.0 mi North 12.7 mph 24.2 mph N/A   Clear
2:55 PM 62.6 °F - 37.4 °F 39% 30.08 in 10.0 mi North 19.6 mph 25.3 mph N/A   Clear
3:15 PM 62.6 °F - 35.6 °F 37% 30.07 in 10.0 mi North 15.0 mph - N/A   Clear
3:35 PM 62.6 °F - 35.6 °F 37% 30.07 in 10.0 mi North 18.4 mph 23.0 mph N/A   Clear
3:55 PM 62.6 °F - 35.6 °F 37% 30.06 in 10.0 mi NNW 15.0 mph 21.9 mph N/A   Clear
4:15 PM 62.6 °F - 35.6 °F 37% 30.06 in 10.0 mi North 17.3 mph 21.9 mph N/A   Clear
4:35 PM 62.6 °F - 35.6 °F 37% 30.05 in 10.0 mi North 15.0 mph 21.9 mph N/A   Clear
4:55 PM 62.6 °F - 37.4 °F 39% 30.05 in 10.0 mi North 12.7 mph 18.4 mph N/A   Clear
5:15 PM 62.6 °F - 37.4 °F 39% 30.05 in 10.0 mi North 15.0 mph 19.6 mph N/A   Clear
5:35 PM 60.8 °F - 35.6 °F 39% 30.06 in 10.0 mi NNW 12.7 mph 18.4 mph N/A   Clear
5:55 PM 60.8 °F - 37.4 °F 42% 30.07 in 10.0 mi NNW 11.5 mph - N/A   Clear
6:15 PM 59.0 °F - 35.6 °F 42% 30.07 in 10.0 mi North 12.7 mph - N/A   Clear
6:35 PM 55.4 °F - 37.4 °F 51% 30.08 in 10.0 mi NNW 6.9 mph - N/A   Clear
6:55 PM 53.6 °F - 37.4 °F 54% 30.09 in 10.0 mi North 8.1 mph - N/A   Clear
7:15 PM 53.6 °F - 39.2 °F 58% 30.10 in 10.0 mi North 5.8 mph - N/A   Clear
7:35 PM 51.8 °F - 41.0 °F 67% 30.11 in 10.0 mi NNW 4.6 mph - N/A   Clear
7:55 PM 50.0 °F - 41.0 °F 71% 30.12 in 10.0 mi NNW 5.8 mph - N/A   Clear
8:15 PM 46.4 °F 44.3 °F 41.0 °F 81% 30.13 in 10.0 mi NNW 4.6 mph - N/A   Clear
8:35 PM 46.4 °F 44.3 °F 41.0 °F 81% 30.13 in 10.0 mi NNW 4.6 mph - N/A   Clear
8:55 PM 48.2 °F - 41.0 °F 76% 30.14 in 10.0 mi NNW 3.5 mph - N/A   Clear
9:15 PM 46.4 °F 45.2 °F 41.0 °F 81% 30.15 in 10.0 mi North 3.5 mph - N/A   Clear
9:35 PM 48.2 °F - 41.0 °F 76% 30.15 in 10.0 mi North 5.8 mph - N/A   Clear
9:55 PM 46.4 °F 44.3 °F 41.0 °F 81% 30.15 in 10.0 mi North 4.6 mph - N/A   Clear
10:15 PM 46.4 °F 45.2 °F 41.0 °F 81% 30.16 in 10.0 mi North 3.5 mph - N/A   Clear
10:35 PM 44.6 °F 43.1 °F 39.2 °F 81% 30.17 in 10.0 mi North 3.5 mph - N/A   Clear
10:55 PM 44.6 °F 43.1 °F 39.2 °F 81% 30.17 in 10.0 mi NNW 3.5 mph - N/A   Clear
11:35 PM 42.8 °F 41.1 °F 37.4 °F 81% 30.18 in 10.0 mi North 3.5 mph - N/A   Clear
11:55 PM 44.6 °F 42.2 °F 39.2 °F 81% 30.18 in 10.0 mi North 4.6 mph - N/A   Clear